EWG1BA EDDH-EDDM

Flight info

Callsign EWG1BA
Flight time 1h 0m
Altitude 31000
Route AMLUH2G AMLUH M852 DENIX DCT ZUCKA DCT SODRO T703 LULAR T105 LANDU LANDU2B
Aircraft A319/M-SDE3FGHIRWY/LB1

Departure

Time 2026-05-06 16:43
Airport Hamburg Helmut Schmidt Airport (EDDH)

Arrival

Time 2026-05-06 17:43
Airport Munich Airport (EDDM)
Time Latitude Longitude Altitude Speed Heading
2026-05-06 16:12 53.62776 10.00281 48 ft 0 kts 63°
2026-05-06 16:33 53.62775 10.00278 48 ft 2 kts 63°
2026-05-06 16:33 53.62762 10.00243 47 ft 4 kts 46°
2026-05-06 16:34 53.62715 10.00203 48 ft 4 kts
2026-05-06 16:34 53.62689 10.00208 47 ft 4 kts 337°
2026-05-06 16:34 53.62684 10.00212 45 ft 1 kts 333°
2026-05-06 16:37 53.62691 10.00205 47 ft 2 kts 333°
2026-05-06 16:37 53.62724 10.00177 47 ft 8 kts 333°
2026-05-06 16:37 53.62791 10.00117 48 ft 14 kts 332°
2026-05-06 16:38 53.62873 10.00052 47 ft 13 kts 346°
2026-05-06 16:38 53.62911 9.99967 48 ft 10 kts 256°
2026-05-06 16:38 53.62897 9.99915 48 ft 0 kts 243°
2026-05-06 16:40 53.62891 9.99897 45 ft 4 kts 243°
2026-05-06 16:40 53.62872 9.99832 45 ft 8 kts 243°
2026-05-06 16:40 53.62877 9.99738 44 ft 9 kts 322°
2026-05-06 16:41 53.62911 9.99709 45 ft 0 kts 335°
2026-05-06 16:41 53.62911 9.99708 45 ft 0 kts 333°
2026-05-06 16:42 53.62913 9.99706 45 ft 0 kts 334°
2026-05-06 16:42 53.63016 9.99621 45 ft 53 kts 333°
2026-05-06 16:42 53.63584 9.99127 48 ft 125 kts 333°
2026-05-06 16:42 53.64508 9.98335 179 ft 166 kts 334°
2026-05-06 16:43 53.65525 9.97487 924 ft 164 kts 337°
2026-05-06 16:43 53.66550 9.96619 1592 ft 172 kts 339°
2026-05-06 16:43 53.67698 9.95646 2042 ft 193 kts 339°
2026-05-06 16:43 53.68972 9.94753 2470 ft 206 kts 354°
2026-05-06 16:44 53.70401 9.94717 3237 ft 206 kts
2026-05-06 16:44 53.71841 9.94780 4070 ft 209 kts 12°
2026-05-06 16:44 53.73074 9.96009 4773 ft 209 kts 56°
2026-05-06 16:44 53.73550 9.98329 5551 ft 212 kts 77°
2026-05-06 16:45 53.73871 10.00748 6304 ft 217 kts 77°
2026-05-06 16:45 53.73934 10.03356 7013 ft 225 kts 96°
2026-05-06 16:45 53.73453 10.05931 7536 ft 246 kts 116°
2026-05-06 16:45 53.72578 10.08573 7997 ft 267 kts 117°
2026-05-06 16:46 53.71628 10.11387 8808 ft 275 kts 117°
2026-05-06 16:46 53.70684 10.14177 9701 ft 280 kts 118°
2026-05-06 16:46 53.69652 10.17012 10401 ft 292 kts 126°
2026-05-06 16:46 53.68162 10.19591 10706 ft 317 kts 141°
2026-05-06 16:47 53.66195 10.21486 11164 ft 333 kts 158°
2026-05-06 16:47 53.63948 10.22594 12001 ft 338 kts 164°
2026-05-06 16:47 53.61672 10.23623 12932 ft 341 kts 164°
2026-05-06 16:47 53.59375 10.24681 13801 ft 344 kts 164°
2026-05-06 16:48 53.57063 10.25757 14571 ft 345 kts 164°
2026-05-06 16:48 53.54734 10.26842 15262 ft 350 kts 165°
2026-05-06 16:48 53.52406 10.27916 15988 ft 353 kts 166°
2026-05-06 16:48 53.50030 10.29006 16653 ft 357 kts 166°
2026-05-06 16:49 53.47587 10.30122 17305 ft 361 kts 166°
2026-05-06 16:49 53.45179 10.31217 17963 ft 365 kts 166°
2026-05-06 16:49 53.42688 10.32346 18562 ft 368 kts 166°
2026-05-06 16:49 53.40231 10.33455 19141 ft 372 kts 167°
2026-05-06 16:50 53.37722 10.34583 19736 ft 374 kts 167°
2026-05-06 16:50 53.35200 10.35718 20333 ft 378 kts 166°
2026-05-06 16:50 53.32645 10.36867 20914 ft 381 kts 166°
2026-05-06 16:50 53.30941 10.37630 21294 ft 384 kts 166°
2026-05-06 16:51 53.27472 10.39181 22056 ft 388 kts 166°
2026-05-06 16:51 53.24852 10.40354 22610 ft 392 kts 166°
2026-05-06 16:51 53.22205 10.41537 23126 ft 395 kts 166°
2026-05-06 16:51 53.19537 10.42724 23609 ft 399 kts 166°
2026-05-06 16:52 53.16846 10.43920 24107 ft 401 kts 166°
2026-05-06 16:52 53.14150 10.45121 24609 ft 402 kts 166°
2026-05-06 16:52 53.11428 10.46270 25039 ft 405 kts 167°
2026-05-06 16:52 53.08660 10.47247 25463 ft 407 kts 169°
2026-05-06 16:53 53.05879 10.48094 25950 ft 408 kts 171°
2026-05-06 16:53 53.03067 10.48890 26358 ft 411 kts 171°
2026-05-06 16:53 53.00241 10.49684 26774 ft 414 kts 170°
2026-05-06 16:53 52.97396 10.50508 27211 ft 416 kts 170°
2026-05-06 16:54 52.94533 10.51366 27603 ft 419 kts 169°
2026-05-06 16:54 52.91659 10.52249 28005 ft 422 kts 169°
2026-05-06 16:54 52.88769 10.53150 28413 ft 424 kts 169°
2026-05-06 16:54 52.85861 10.54061 28838 ft 426 kts 169°
2026-05-06 16:55 52.82945 10.54971 29203 ft 429 kts 169°
2026-05-06 16:55 52.80009 10.55884 29631 ft 430 kts 169°
2026-05-06 16:55 52.77066 10.56799 29983 ft 432 kts 170°
2026-05-06 16:55 52.74090 10.57715 30190 ft 437 kts 170°
2026-05-06 16:56 52.71089 10.58631 30468 ft 440 kts 171°
2026-05-06 16:56 52.68077 10.59549 30754 ft 441 kts 172°
2026-05-06 16:56 52.65068 10.60468 30812 ft 438 kts 172°
2026-05-06 16:57 52.59077 10.62303 30820 ft 437 kts 172°
2026-05-06 16:57 52.53084 10.64134 30810 ft 437 kts 172°
2026-05-06 16:58 52.47137 10.65930 30815 ft 433 kts 173°
2026-05-06 16:58 52.41216 10.67707 30806 ft 433 kts 172°
2026-05-06 16:59 52.35295 10.69493 30814 ft 433 kts 172°
2026-05-06 16:59 52.29381 10.71280 30817 ft 432 kts 172°
2026-05-06 17:00 52.23472 10.73053 30807 ft 430 kts 173°
2026-05-06 17:00 52.17593 10.74813 30809 ft 430 kts 173°
2026-05-06 17:01 52.11709 10.76576 30803 ft 430 kts 173°
2026-05-06 17:01 52.05828 10.78332 30798 ft 430 kts 173°
2026-05-06 17:02 51.99955 10.80067 30791 ft 428 kts 173°
2026-05-06 17:02 51.95096 10.81507 30787 ft 425 kts 173°
2026-05-06 17:03 51.89291 10.83227 30792 ft 424 kts 173°
2026-05-06 17:03 51.82547 10.85215 30785 ft 424 kts 173°
2026-05-06 17:04 51.76740 10.86910 30772 ft 424 kts 173°
2026-05-06 17:04 51.71862 10.88341 30783 ft 426 kts 173°
2026-05-06 17:05 51.66106 10.90733 30779 ft 432 kts 161°
2026-05-06 17:05 51.60678 10.94983 30777 ft 434 kts 158°
2026-05-06 17:06 51.55251 10.99243 30776 ft 434 kts 158°
2026-05-06 17:06 51.49822 11.03491 30778 ft 434 kts 158°
2026-05-06 17:07 51.44408 11.07750 30772 ft 434 kts 158°
2026-05-06 17:07 51.38997 11.11996 30771 ft 432 kts 158°
2026-05-06 17:08 51.33640 11.16173 30766 ft 431 kts 158°
2026-05-06 17:08 51.28211 11.20394 30768 ft 431 kts 158°
2026-05-06 17:09 51.22847 11.24565 30765 ft 432 kts 158°
2026-05-06 17:09 51.17448 11.28752 30770 ft 432 kts 158°
2026-05-06 17:10 51.12038 11.32938 30768 ft 432 kts 158°
2026-05-06 17:10 51.06630 11.37102 30769 ft 432 kts 158°
2026-05-06 17:11 51.01217 11.41262 30751 ft 432 kts 158°
2026-05-06 17:11 50.95804 11.45411 30764 ft 432 kts 158°
2026-05-06 17:12 50.90399 11.49540 30763 ft 431 kts 158°
2026-05-06 17:12 50.84983 11.53658 30766 ft 432 kts 158°
2026-05-06 17:13 50.79565 11.57778 30762 ft 432 kts 158°
2026-05-06 17:13 50.74145 11.61883 30563 ft 434 kts 159°
2026-05-06 17:13 50.71407 11.63950 30749 ft 438 kts 159°
2026-05-06 17:14 50.68654 11.66033 30771 ft 440 kts 159°
2026-05-06 17:14 50.63134 11.70206 30766 ft 439 kts 159°
2026-05-06 17:15 50.57610 11.74367 30765 ft 441 kts 159°
2026-05-06 17:15 50.52071 11.78522 30782 ft 441 kts 159°
2026-05-06 17:16 50.46525 11.82682 30778 ft 441 kts 159°
2026-05-06 17:16 50.40933 11.86615 30780 ft 440 kts 161°
2026-05-06 17:17 50.35292 11.90342 30792 ft 440 kts 162°
2026-05-06 17:17 50.29666 11.94079 30781 ft 440 kts 161°
2026-05-06 17:18 50.24043 11.97868 30784 ft 439 kts 161°
2026-05-06 17:18 50.18439 12.01641 30767 ft 439 kts 161°
2026-05-06 17:19 50.12815 12.05407 30770 ft 440 kts 161°
2026-05-06 17:19 50.07221 12.09162 30762 ft 440 kts 161°
2026-05-06 17:20 50.01474 12.12051 30688 ft 426 kts 177°
2026-05-06 17:20 49.98549 12.12547 30227 ft 419 kts 178°
2026-05-06 17:20 49.95672 12.12979 29776 ft 414 kts 178°
2026-05-06 17:20 49.92816 12.13375 29264 ft 410 kts 179°
2026-05-06 17:21 49.89987 12.13755 28779 ft 407 kts 178°
2026-05-06 17:21 49.87172 12.14133 28285 ft 405 kts 178°
2026-05-06 17:21 49.84374 12.14511 27793 ft 402 kts 178°
2026-05-06 17:21 49.81598 12.14900 27321 ft 400 kts 178°
2026-05-06 17:22 49.78832 12.15373 26852 ft 398 kts 176°
2026-05-06 17:22 49.76093 12.15924 26384 ft 395 kts 175°
2026-05-06 17:22 49.73357 12.16515 25932 ft 403 kts 175°
2026-05-06 17:22 49.70568 12.17123 25482 ft 405 kts 174°
2026-05-06 17:23 49.67774 12.17724 25046 ft 404 kts 175°
2026-05-06 17:23 49.64991 12.18305 24610 ft 403 kts 175°
2026-05-06 17:23 49.62220 12.18870 24159 ft 400 kts 175°
2026-05-06 17:23 49.59471 12.19424 23733 ft 398 kts 175°
2026-05-06 17:24 49.56727 12.19974 23303 ft 396 kts 175°
2026-05-06 17:24 49.53995 12.20521 22809 ft 394 kts 175°
2026-05-06 17:24 49.51290 12.21060 22327 ft 391 kts 175°
2026-05-06 17:24 49.48595 12.21594 21845 ft 389 kts 175°
2026-05-06 17:25 49.45920 12.22126 21372 ft 386 kts 175°
2026-05-06 17:25 49.43262 12.22657 20913 ft 384 kts 175°
2026-05-06 17:25 49.40626 12.23185 20457 ft 381 kts 175°
2026-05-06 17:25 49.38001 12.23706 20001 ft 379 kts 175°
2026-05-06 17:26 49.35391 12.24219 19568 ft 377 kts 175°
2026-05-06 17:26 49.32803 12.24728 19137 ft 375 kts 175°
2026-05-06 17:26 49.30223 12.25239 18700 ft 372 kts 175°
2026-05-06 17:26 49.27670 12.25748 18269 ft 369 kts 175°
2026-05-06 17:27 49.25127 12.26253 17831 ft 367 kts 175°
2026-05-06 17:27 49.22602 12.26754 17353 ft 364 kts 175°
2026-05-06 17:27 49.20096 12.27247 16876 ft 362 kts 175°
2026-05-06 17:27 49.17604 12.27735 16412 ft 360 kts 175°
2026-05-06 17:28 49.15126 12.28223 15993 ft 358 kts 175°
2026-05-06 17:28 49.12665 12.28709 15615 ft 357 kts 175°
2026-05-06 17:28 49.10209 12.29196 15246 ft 355 kts 175°
2026-05-06 17:28 49.07764 12.29676 14862 ft 353 kts 175°
2026-05-06 17:29 49.05333 12.30154 14494 ft 351 kts 174°
2026-05-06 17:29 49.02914 12.30631 14136 ft 350 kts 174°
2026-05-06 17:29 49.00511 12.31096 13773 ft 348 kts 175°
2026-05-06 17:29 48.98110 12.31513 13405 ft 346 kts 178°
2026-05-06 17:30 48.95716 12.31462 13016 ft 343 kts 184°
2026-05-06 17:30 48.93344 12.31272 12619 ft 341 kts 185°
2026-05-06 17:30 48.90980 12.31070 12235 ft 339 kts 185°
2026-05-06 17:30 48.88624 12.30861 11850 ft 337 kts 185°
2026-05-06 17:31 48.86301 12.30648 11365 ft 334 kts 184°
2026-05-06 17:31 48.83991 12.30423 10839 ft 331 kts 185°
2026-05-06 17:31 48.81703 12.30191 10316 ft 329 kts 185°
2026-05-06 17:31 48.79433 12.29953 9936 ft 327 kts 185°
2026-05-06 17:32 48.77152 12.29709 9574 ft 327 kts 185°
2026-05-06 17:32 48.74906 12.29471 9116 ft 321 kts 185°
2026-05-06 17:32 48.72697 12.29244 8631 ft 312 kts 185°
2026-05-06 17:32 48.70569 12.29020 8149 ft 302 kts 185°
2026-05-06 17:33 48.68503 12.28794 7676 ft 293 kts 185°
2026-05-06 17:33 48.66496 12.28566 7208 ft 286 kts 185°
2026-05-06 17:33 48.64538 12.28336 6745 ft 279 kts 185°
2026-05-06 17:33 48.62628 12.28114 6287 ft 272 kts 184°
2026-05-06 17:34 48.60765 12.27889 5815 ft 266 kts 185°
2026-05-06 17:34 48.58936 12.27666 5341 ft 260 kts 185°
2026-05-06 17:34 48.57182 12.27230 4991 ft 249 kts 193°
2026-05-06 17:34 48.55547 12.26601 4944 ft 239 kts 194°
2026-05-06 17:35 48.53949 12.25968 4946 ft 237 kts 194°
2026-05-06 17:35 48.52354 12.25334 4950 ft 238 kts 194°
2026-05-06 17:35 48.50757 12.24696 4959 ft 237 kts 194°
2026-05-06 17:36 48.47532 12.23410 4331 ft 240 kts 194°
2026-05-06 17:36 48.45920 12.22773 3995 ft 237 kts 195°
2026-05-06 17:36 48.44375 12.22170 3950 ft 222 kts 196°
2026-05-06 17:36 48.43051 12.21053 4010 ft 221 kts 226°
2026-05-06 17:37 48.42096 12.19241 3987 ft 221 kts 234°
2026-05-06 17:37 48.41198 12.17352 3989 ft 222 kts 234°
2026-05-06 17:37 48.40334 12.15520 3980 ft 209 kts 234°
2026-05-06 17:37 48.39650 12.13638 3995 ft 203 kts 252°
2026-05-06 17:38 48.39237 12.11654 4007 ft 192 kts 253°
2026-05-06 17:38 48.38877 12.09761 3997 ft 183 kts 258°
2026-05-06 17:38 48.38658 12.07911 4001 ft 175 kts 262°
2026-05-06 17:38 48.38501 12.06122 4000 ft 172 kts 263°
2026-05-06 17:39 48.38360 12.04333 4000 ft 173 kts 263°
2026-05-06 17:39 48.38223 12.02528 3998 ft 174 kts 263°
2026-05-06 17:39 48.38088 12.00717 3887 ft 173 kts 263°
2026-05-06 17:39 48.37955 11.98935 3692 ft 170 kts 263°
2026-05-06 17:40 48.37826 11.97222 3481 ft 157 kts 264°
2026-05-06 17:40 48.37710 11.95675 3289 ft 142 kts 264°
2026-05-06 17:40 48.37605 11.94266 3122 ft 131 kts 264°
2026-05-06 17:40 48.37505 11.92931 2957 ft 128 kts 264°
2026-05-06 17:41 48.37403 11.91583 2784 ft 131 kts 264°
2026-05-06 17:41 48.37299 11.90219 2567 ft 133 kts 262°
2026-05-06 17:41 48.37196 11.88841 2395 ft 132 kts 263°
2026-05-06 17:41 48.37092 11.87469 2195 ft 133 kts 263°
2026-05-06 17:42 48.36990 11.86103 2003 ft 131 kts 262°
2026-05-06 17:42 48.36885 11.84760 1805 ft 132 kts 261°
2026-05-06 17:42 48.36785 11.83360 1675 ft 134 kts 262°
2026-05-06 17:42 48.36683 11.82002 1523 ft 127 kts 262°
2026-05-06 17:43 48.36589 11.80803 1485 ft 97 kts 264°
2026-05-06 17:43 48.36530 11.80056 1485 ft 47 kts 262°
2026-05-06 17:43 48.36477 11.79761 1482 ft 23 kts 253°
2026-05-06 17:43 48.36385 11.79571 1485 ft 21 kts 234°
2026-05-06 17:44 48.36321 11.79440 1477 ft 12 kts 234°
2026-05-06 17:44 48.36279 11.79352 1480 ft 11 kts 233°
2026-05-06 17:44 48.36265 11.79326 1480 ft 0 kts 223°
2026-05-06 17:44 48.36264 11.79326 1480 ft 0 kts 222°
2026-05-06 17:45 48.36251 11.79312 1478 ft 4 kts 211°
2026-05-06 17:45 48.36208 11.79297 1485 ft 8 kts 181°
2026-05-06 17:45 48.36137 11.79306 1479 ft 12 kts 174°
2026-05-06 17:45 48.36050 11.79322 1481 ft 14 kts 172°
2026-05-06 17:46 48.35986 11.79336 1486 ft 15 kts 170°
2026-05-06 17:46 48.35896 11.79418 1485 ft 16 kts 134°
2026-05-06 17:46 48.35786 11.79465 1485 ft 16 kts 173°
2026-05-06 17:46 48.35722 11.79475 1480 ft 9 kts 174°
2026-05-06 17:47 48.35652 11.79487 1482 ft 10 kts 173°
2026-05-06 17:47 48.35576 11.79500 1485 ft 11 kts 173°
2026-05-06 17:47 48.35505 11.79514 1480 ft 9 kts 172°
2026-05-06 17:47 48.35443 11.79523 1479 ft 9 kts 174°
2026-05-06 17:48 48.35381 11.79534 1485 ft 9 kts 172°
2026-05-06 17:48 48.35316 11.79545 1484 ft 9 kts 173°
2026-05-06 17:48 48.35249 11.79557 1485 ft 10 kts 174°
2026-05-06 17:48 48.35180 11.79569 1477 ft 10 kts 173°
2026-05-06 17:49 48.35110 11.79579 1485 ft 10 kts 182°
2026-05-06 17:49 48.35072 11.79525 1481 ft 6 kts 244°
2026-05-06 17:49 48.35065 11.79466 1485 ft 5 kts 265°
2026-05-06 17:49 48.35061 11.79418 1485 ft 4 kts 263°
2026-05-06 17:50 48.35059 11.79382 1485 ft 0 kts 263°
2026-05-06 17:50 48.35058 11.79379 1485 ft 0 kts 263°